����������;��������(kWh)
2019-02-11 00:00;110,5
2019-02-11 00:15;108,35
2019-02-11 00:30;108,45
2019-02-11 00:45;107,4
2019-02-11 01:00;109,15
2019-02-11 01:15;106,65
2019-02-11 01:30;107,4
2019-02-11 01:45;105,2
2019-02-11 02:00;105,3
2019-02-11 02:15;105,2
2019-02-11 02:30;102,95
2019-02-11 02:45;104,25
2019-02-11 03:00;102,6
2019-02-11 03:15;106,8
2019-02-11 03:30;112,5
2019-02-11 03:45;112,95
2019-02-11 04:00;113,3
2019-02-11 04:15;115,15
2019-02-11 04:30;114,75
2019-02-11 04:45;115,7
2019-02-11 05:00;116,05
2019-02-11 05:15;117,8
2019-02-11 05:30;116,65
2019-02-11 05:45;115,25
2019-02-11 06:00;113
2019-02-11 06:15;110,8
2019-02-11 06:30;111,75
2019-02-11 06:45;110,1
2019-02-11 07:00;113,25
2019-02-11 07:15;118,45
2019-02-11 07:30;118,4
2019-02-11 07:45;128,65
2019-02-11 08:00;135,15
2019-02-11 08:15;152,55
2019-02-11 08:30;209,4
2019-02-11 08:45;192,15
2019-02-11 09:00;190
2019-02-11 09:15;208,95
2019-02-11 09:30;214
2019-02-11 09:45;206,65
2019-02-11 10:00;215,7
2019-02-11 10:15;221,35
2019-02-11 10:30;234,75
2019-02-11 10:45;242,25
2019-02-11 11:00;263,9
2019-02-11 11:15;273,9
2019-02-11 11:30;265,75
2019-02-11 11:45;264,55
2019-02-11 12:00;270,25
2019-02-11 12:15;263,75
2019-02-11 12:30;263,7
2019-02-11 12:45;255,35
2019-02-11 13:00;263,15
2019-02-11 13:15;253,15
2019-02-11 13:30;258,55
2019-02-11 13:45;248,7
2019-02-11 14:00;244,15
2019-02-11 14:15;246,95
2019-02-11 14:30;246
2019-02-11 14:45;231,4
2019-02-11 15:00;214,7
2019-02-11 15:15;217,15
2019-02-11 15:30;199,9
2019-02-11 15:45;194,3
2019-02-11 16:00;196,85
2019-02-11 16:15;173,7
2019-02-11 16:30;184,85
2019-02-11 16:45;180,85
2019-02-11 17:00;174,65
2019-02-11 17:15;175,35
2019-02-11 17:30;176,15
2019-02-11 17:45;172,15
2019-02-11 18:00;181,3
2019-02-11 18:15;163,2
2019-02-11 18:30;165,4
2019-02-11 18:45;171,9
2019-02-11 19:00;171,4
2019-02-11 19:15;159,8
2019-02-11 19:30;158,35
2019-02-11 19:45;154,2
2019-02-11 20:00;156,85
2019-02-11 20:15;142,15
2019-02-11 20:30;132,1
2019-02-11 20:45;132,55
2019-02-11 21:00;127,8
2019-02-11 21:15;118,9
2019-02-11 21:30;114,65
2019-02-11 21:45;108,65
2019-02-11 22:00;108,35
2019-02-11 22:15;106,5
2019-02-11 22:30;105,45
2019-02-11 22:45;102
2019-02-11 23:00;106,7
2019-02-11 23:15;99,4
2019-02-11 23:30;99,1
2019-02-11 23:45;102,9
2019-02-12 00:00;96,05
2019-02-12 00:15;94,85
2019-02-12 00:30;92,8
2019-02-12 00:45;94,7
2019-02-12 01:00;94,65
2019-02-12 01:15;96,25
2019-02-12 01:30;97,45
2019-02-12 01:45;101,15
2019-02-12 02:00;98,6
2019-02-12 02:15;98,85
2019-02-12 02:30;98,05
2019-02-12 02:45;98,6
2019-02-12 03:00;98,2
2019-02-12 03:15;101,45
2019-02-12 03:30;99,7
2019-02-12 03:45;98,4
2019-02-12 04:00;99,05
2019-02-12 04:15;99
2019-02-12 04:30;98,2
2019-02-12 04:45;99,85
2019-02-12 05:00;100,85
2019-02-12 05:15;93,45
2019-02-12 05:30;89,75
2019-02-12 05:45;91,05
2019-02-12 06:00;89,3
2019-02-12 06:15;99,55
2019-02-12 06:30;101
2019-02-12 06:45;103,5
2019-02-12 07:00;103,8
2019-02-12 07:15;107,8
2019-02-12 07:30;160,6
2019-02-12 07:45;152,2
2019-02-12 08:00;142,65
2019-02-12 08:15;149,9
2019-02-12 08:30;157,3
2019-02-12 08:45;179,25
2019-02-12 09:00;188,7
2019-02-12 09:15;198,65
2019-02-12 09:30;214,4
2019-02-12 09:45;211
2019-02-12 10:00;204,85
2019-02-12 10:15;203,05
2019-02-12 10:30;208,45
2019-02-12 10:45;209,65
2019-02-12 11:00;213,1
2019-02-12 11:15;227,1
2019-02-12 11:30;225,75
2019-02-12 11:45;235
2019-02-12 12:00;238,8
2019-02-12 12:15;224,45
2019-02-12 12:30;236,35
2019-02-12 12:45;240,2
2019-02-12 13:00;242,25
2019-02-12 13:15;236,75
2019-02-12 13:30;237,8
2019-02-12 13:45;237,4
2019-02-12 14:00;227,2
2019-02-12 14:15;238,75
2019-02-12 14:30;231,75
2019-02-12 14:45;234,45
2019-02-12 15:00;232,45
2019-02-12 15:15;231,35
2019-02-12 15:30;234,95
2019-02-12 15:45;221
2019-02-12 16:00;217,3
2019-02-12 16:15;206,5
2019-02-12 16:30;214,1
2019-02-12 16:45;226,25
2019-02-12 17:00;211,05
2019-02-12 17:15;217,55
2019-02-12 17:30;200,95
2019-02-12 17:45;203,75
2019-02-12 18:00;201,1
2019-02-12 18:15;191,25
2019-02-12 18:30;184,1
2019-02-12 18:45;175,1
2019-02-12 19:00;178,3
2019-02-12 19:15;174,7
2019-02-12 19:30;171,7
2019-02-12 19:45;163,1
2019-02-12 20:00;164,4
2019-02-12 20:15;143,7
2019-02-12 20:30;143,2
2019-02-12 20:45;141,55
2019-02-12 21:00;138,7
2019-02-12 21:15;133,4
2019-02-12 21:30;135,35
2019-02-12 21:45;131,25
2019-02-12 22:00;121,6
2019-02-12 22:15;120,3
2019-02-12 22:30;119,45
2019-02-12 22:45;119,55
2019-02-12 23:00;126,55
2019-02-12 23:15;120,25
2019-02-12 23:30;120,65
2019-02-12 23:45;123,45
2019-02-13 00:00;112,8
2019-02-13 00:15;111,45
2019-02-13 00:30;109,45
2019-02-13 00:45;110,8
2019-02-13 01:00;120,15
2019-02-13 01:15;120,6
2019-02-13 01:30;119,9
2019-02-13 01:45;118,1
2019-02-13 02:00;118
2019-02-13 02:15;120,95
2019-02-13 02:30;114,75
2019-02-13 02:45;118,8
2019-02-13 03:00;119,2
2019-02-13 03:15;116,95
2019-02-13 03:30;110,05
2019-02-13 03:45;111,5
2019-02-13 04:00;111,2
2019-02-13 04:15;112,55
2019-02-13 04:30;116,9
2019-02-13 04:45;114,95
2019-02-13 05:00;115,5
2019-02-13 05:15;112,15
2019-02-13 05:30;113,05
2019-02-13 05:45;111,4
2019-02-13 06:00;113,1
2019-02-13 06:15;111,6
2019-02-13 06:30;112,35
2019-02-13 06:45;111,6
2019-02-13 07:00;114,75
2019-02-13 07:15;120,1
2019-02-13 07:30;175
2019-02-13 07:45;160,45
2019-02-13 08:00;171,25
2019-02-13 08:15;169,55
2019-02-13 08:30;181,75
2019-02-13 08:45;200,15
2019-02-13 09:00;213,15
2019-02-13 09:15;243,55
2019-02-13 09:30;246,5
2019-02-13 09:45;262,35
2019-02-13 10:00;267,15
2019-02-13 10:15;279,35
2019-02-13 10:30;284,4
2019-02-13 10:45;284,55
2019-02-13 11:00;289,4
2019-02-13 11:15;300,05
2019-02-13 11:30;304,7
2019-02-13 11:45;313,85
2019-02-13 12:00;311,5
2019-02-13 12:15;298,75
2019-02-13 12:30;308,95
2019-02-13 12:45;303,85
2019-02-13 13:00;315,2
2019-02-13 13:15;302,8
2019-02-13 13:30;303,7
2019-02-13 13:45;306,7
2019-02-13 14:00;299,05
2019-02-13 14:15;300,35
2019-02-13 14:30;288,35
2019-02-13 14:45;286,7
2019-02-13 15:00;286,45
2019-02-13 15:15;265,6
2019-02-13 15:30;262,65
2019-02-13 15:45;253,05
2019-02-13 16:00;250,4
2019-02-13 16:15;239,7
2019-02-13 16:30;230,15
2019-02-13 16:45;231,45
2019-02-13 17:00;233,9
2019-02-13 17:15;225,45
2019-02-13 17:30;202,35
2019-02-13 17:45;213,6
2019-02-13 18:00;210,1
2019-02-13 18:15;204,7
2019-02-13 18:30;200,55
2019-02-13 18:45;207,05
2019-02-13 19:00;198,15
2019-02-13 19:15;197,2
2019-02-13 19:30;193,3
2019-02-13 19:45;185,25
2019-02-13 20:00;184,75
2019-02-13 20:15;177,15
2019-02-13 20:30;169
2019-02-13 20:45;169,85
2019-02-13 21:00;164,5
2019-02-13 21:15;163,15
2019-02-13 21:30;159,8
2019-02-13 21:45;150,8
2019-02-13 22:00;150,1
2019-02-13 22:15;152,7
2019-02-13 22:30;150,3
2019-02-13 22:45;149,8
2019-02-13 23:00;155,5
2019-02-13 23:15;147
2019-02-13 23:30;147,8
2019-02-13 23:45;145,6
2019-02-14 00:00;132,35
2019-02-14 00:15;129,65
2019-02-14 00:30;126,8
2019-02-14 00:45;131,2
2019-02-14 01:00;131,45
2019-02-14 01:15;130,2
2019-02-14 01:30;131
2019-02-14 01:45;136,55
2019-02-14 02:00;138,4
2019-02-14 02:15;136,55
2019-02-14 02:30;137,95
2019-02-14 02:45;136,7
2019-02-14 03:00;134,7
2019-02-14 03:15;131,95
2019-02-14 03:30;129,55
2019-02-14 03:45;129,9
2019-02-14 04:00;129,4
2019-02-14 04:15;128,1
2019-02-14 04:30;129,4
2019-02-14 04:45;133,5
2019-02-14 05:00;132,55
2019-02-14 05:15;132,1
2019-02-14 05:30;131,35
2019-02-14 05:45;126,1
2019-02-14 06:00;130,25
2019-02-14 06:15;127,4
2019-02-14 06:30;127,4
2019-02-14 06:45;129,35
2019-02-14 07:00;137,3
2019-02-14 07:15;127,5
2019-02-14 07:30;189,2
2019-02-14 07:45;155,2
2019-02-14 08:00;166,2
2019-02-14 08:15;171,9
2019-02-14 08:30;173,85
2019-02-14 08:45;198,7
2019-02-14 09:00;218,05
2019-02-14 09:15;234,8
2019-02-14 09:30;247,15
2019-02-14 09:45;251,7
2019-02-14 10:00;260,85
2019-02-14 10:15;270,65
2019-02-14 10:30;277,75
2019-02-14 10:45;289
2019-02-14 11:00;297,1
2019-02-14 11:15;294,85
2019-02-14 11:30;302,5
2019-02-14 11:45;331,45
2019-02-14 12:00;329,25
2019-02-14 12:15;324,15
2019-02-14 12:30;315,1
2019-02-14 12:45;315,85
2019-02-14 13:00;311,55
2019-02-14 13:15;317,3
2019-02-14 13:30;307,4
2019-02-14 13:45;304,7
2019-02-14 14:00;305,25
2019-02-14 14:15;311,35
2019-02-14 14:30;312,2
2019-02-14 14:45;305,3
2019-02-14 15:00;301,55
2019-02-14 15:15;341,25
2019-02-14 15:30;295,95
2019-02-14 15:45;281,85
2019-02-14 16:00;272,55
2019-02-14 16:15;263,5
2019-02-14 16:30;260,2
2019-02-14 16:45;252,25
2019-02-14 17:00;249,15
2019-02-14 17:15;241,7
2019-02-14 17:30;224,15
2019-02-14 17:45;228,35
2019-02-14 18:00;224,3
2019-02-14 18:15;213,15
2019-02-14 18:30;204,1
2019-02-14 18:45;189,45
2019-02-14 19:00;185,6
2019-02-14 19:15;178,65
2019-02-14 19:30;178,2
2019-02-14 19:45;169,2
2019-02-14 20:00;160,65
2019-02-14 20:15;157,25
2019-02-14 20:30;155,2
2019-02-14 20:45;154,7
2019-02-14 21:00;151,9
2019-02-14 21:15;149,7
2019-02-14 21:30;150,3
2019-02-14 21:45;146,65
2019-02-14 22:00;149,15
2019-02-14 22:15;149,45
2019-02-14 22:30;143,9
2019-02-14 22:45;144,35
2019-02-14 23:00;148,4
2019-02-14 23:15;142,9
2019-02-14 23:30;147,1
2019-02-14 23:45;148,95
2019-02-15 00:00;133,6
2019-02-15 00:15;130,5
2019-02-15 00:30;129
2019-02-15 00:45;129,15
2019-02-15 01:00;127,85
2019-02-15 01:15;128,55
2019-02-15 01:30;130,95
2019-02-15 01:45;130,05
2019-02-15 02:00;141,85
2019-02-15 02:15;139,9
2019-02-15 02:30;139,55
2019-02-15 02:45;139,45
2019-02-15 03:00;144,35
2019-02-15 03:15;139,35
2019-02-15 03:30;135,65
2019-02-15 03:45;135,55
2019-02-15 04:00;135,5
2019-02-15 04:15;133,05
2019-02-15 04:30;133,2
2019-02-15 04:45;135,95
2019-02-15 05:00;137,2
2019-02-15 05:15;131,9
2019-02-15 05:30;129,45
2019-02-15 05:45;129,9
2019-02-15 06:00;129,3
2019-02-15 06:15;130,15
2019-02-15 06:30;132,8
2019-02-15 06:45;130,1
2019-02-15 07:00;133,4
2019-02-15 07:15;138,85
2019-02-15 07:30;199,05
2019-02-15 07:45;183,9
2019-02-15 08:00;181
2019-02-15 08:15;173,95
2019-02-15 08:30;190,25
2019-02-15 08:45;212,7
2019-02-15 09:00;222
2019-02-15 09:15;233
2019-02-15 09:30;245,75
2019-02-15 09:45;253,2
2019-02-15 10:00;267,35
2019-02-15 10:15;287,3
2019-02-15 10:30;290,9
2019-02-15 10:45;319,3
2019-02-15 11:00;346
2019-02-15 11:15;322,45
2019-02-15 11:30;338,4
2019-02-15 11:45;317,15
2019-02-15 12:00;316,25
2019-02-15 12:15;319,2
2019-02-15 12:30;341,8
2019-02-15 12:45;338,35
2019-02-15 13:00;310,3
2019-02-15 13:15;318,2
2019-02-15 13:30;315,05
2019-02-15 13:45;308,9
2019-02-15 14:00;301,3
2019-02-15 14:15;297
2019-02-15 14:30;293,75
2019-02-15 14:45;284,65
2019-02-15 15:00;276,3
2019-02-15 15:15;266,7
2019-02-15 15:30;263,2
2019-02-15 15:45;287,55
2019-02-15 16:00;274,8
2019-02-15 16:15;255,95
2019-02-15 16:30;250,25
2019-02-15 16:45;220,45
2019-02-15 17:00;219,35
2019-02-15 17:15;216,05
2019-02-15 17:30;201,9
2019-02-15 17:45;198,05
2019-02-15 18:00;192,6
2019-02-15 18:15;190,55
2019-02-15 18:30;188,35
2019-02-15 18:45;183,5
2019-02-15 19:00;179,45
2019-02-15 19:15;179,6
2019-02-15 19:30;174,7
2019-02-15 19:45;171,25
2019-02-15 20:00;153,75
2019-02-15 20:15;148,9
2019-02-15 20:30;137,8
2019-02-15 20:45;138,95
2019-02-15 21:00;132
2019-02-15 21:15;124,8
2019-02-15 21:30;124,35
2019-02-15 21:45;122,8
2019-02-15 22:00;121,45
2019-02-15 22:15;118,25
2019-02-15 22:30;115,6
2019-02-15 22:45;114,7
2019-02-15 23:00;117,35
2019-02-15 23:15;112,3
2019-02-15 23:30;117,3
2019-02-15 23:45;120,3
2019-02-16 00:00;106,15
2019-02-16 00:15;105,1
2019-02-16 00:30;105,5
2019-02-16 00:45;101,9
2019-02-16 01:00;102
2019-02-16 01:15;101,15
2019-02-16 01:30;100,75
2019-02-16 01:45;101,35
2019-02-16 02:00;99,45
2019-02-16 02:15;97,1
2019-02-16 02:30;97,85
2019-02-16 02:45;96,15
2019-02-16 03:00;97,55
2019-02-16 03:15;97,9
2019-02-16 03:30;94,7
2019-02-16 03:45;95,05
2019-02-16 04:00;93,15
2019-02-16 04:15;93,95
2019-02-16 04:30;94
2019-02-16 04:45;96,65
2019-02-16 05:00;93,95
2019-02-16 05:15;95,1
2019-02-16 05:30;93,65
2019-02-16 05:45;92,35
2019-02-16 06:00;93,1
2019-02-16 06:15;96,05
2019-02-16 06:30;92,35
2019-02-16 06:45;90,4
2019-02-16 07:00;90,25
2019-02-16 07:15;92,05
2019-02-16 07:30;90,95
2019-02-16 07:45;87,65
2019-02-16 08:00;88,55
2019-02-16 08:15;90,15
2019-02-16 08:30;92
2019-02-16 08:45;90,8
2019-02-16 09:00;92,35
2019-02-16 09:15;89,8
2019-02-16 09:30;89,3
2019-02-16 09:45;91,65
2019-02-16 10:00;90,5
2019-02-16 10:15;93,3
2019-02-16 10:30;90,1
2019-02-16 10:45;94,75
2019-02-16 11:00;95,1
2019-02-16 11:15;93,1
2019-02-16 11:30;91,25
2019-02-16 11:45;96,05
2019-02-16 12:00;91,75
2019-02-16 12:15;91,3
2019-02-16 12:30;94,3
2019-02-16 12:45;102,3
2019-02-16 13:00;103,5
2019-02-16 13:15;102,25
2019-02-16 13:30;103,55
2019-02-16 13:45;106,15
2019-02-16 14:00;106,1
2019-02-16 14:15;104,6
2019-02-16 14:30;109,05
2019-02-16 14:45;113,85
2019-02-16 15:00;109,15
2019-02-16 15:15;106,75
2019-02-16 15:30;107,65
2019-02-16 15:45;105,9
2019-02-16 16:00;102,95
2019-02-16 16:15;106,35
2019-02-16 16:30;99,3
2019-02-16 16:45;104,25
2019-02-16 17:00;106,9
2019-02-16 17:15;106,6
2019-02-16 17:30;105,55
2019-02-16 17:45;107,4
2019-02-16 18:00;110,5
2019-02-16 18:15;111,2
2019-02-16 18:30;111,35
2019-02-16 18:45;111,55
2019-02-16 19:00;113,05
2019-02-16 19:15;112,9
2019-02-16 19:30;113,85
2019-02-16 19:45;115,55
2019-02-16 20:00;110,8
2019-02-16 20:15;109,9
2019-02-16 20:30;107,05
2019-02-16 20:45;108,05
2019-02-16 21:00;113,35
2019-02-16 21:15;107,3
2019-02-16 21:30;109,75
2019-02-16 21:45;102,3
2019-02-16 22:00;95,65
2019-02-16 22:15;99,3
2019-02-16 22:30;98,3
2019-02-16 22:45;97,55
2019-02-16 23:00;105,8
2019-02-16 23:15;105,65
2019-02-16 23:30;106,35
2019-02-16 23:45;110,45
2019-02-17 00:00;98,05
2019-02-17 00:15;97,95
2019-02-17 00:30;97,8
2019-02-17 00:45;96,35
2019-02-17 01:00;99,55
2019-02-17 01:15;99,8
2019-02-17 01:30;96,6
2019-02-17 01:45;97,8
2019-02-17 02:00;95,7
2019-02-17 02:15;92,75
2019-02-17 02:30;92,75
2019-02-17 02:45;93,35
2019-02-17 03:00;95,15
2019-02-17 03:15;95
2019-02-17 03:30;89,7
2019-02-17 03:45;89
2019-02-17 04:00;90,05
2019-02-17 04:15;90,7
2019-02-17 04:30;91,25
2019-02-17 04:45;91,55
2019-02-17 05:00;92,7
2019-02-17 05:15;90,85
2019-02-17 05:30;89,8
2019-02-17 05:45;89,7
2019-02-17 06:00;90,45
2019-02-17 06:15;92
2019-02-17 06:30;90,4
2019-02-17 06:45;87,6
2019-02-17 07:00;88,05
2019-02-17 07:15;87,1
2019-02-17 07:30;85,2
2019-02-17 07:45;84,6
2019-02-17 08:00;86,95
2019-02-17 08:15;88,2
2019-02-17 08:30;88,2
2019-02-17 08:45;92,15
2019-02-17 09:00;91,9
2019-02-17 09:15;89,45
2019-02-17 09:30;91,2
2019-02-17 09:45;91,2
2019-02-17 10:00;88,05
2019-02-17 10:15;85,2
2019-02-17 10:30;83,3
2019-02-17 10:45;89,15
2019-02-17 11:00;95,85
2019-02-17 11:15;97,6
2019-02-17 11:30;102,4
2019-02-17 11:45;97,2
2019-02-17 12:00;94,85
2019-02-17 12:15;94,45
2019-02-17 12:30;95,3
2019-02-17 12:45;100,7
2019-02-17 13:00;101,5
2019-02-17 13:15;101,85
2019-02-17 13:30;105,95
2019-02-17 13:45;103,8
2019-02-17 14:00;101,8
2019-02-17 14:15;100,1
2019-02-17 14:30;104,1
2019-02-17 14:45;101,4
2019-02-17 15:00;107,9
2019-02-17 15:15;102,3
2019-02-17 15:30;102,8
2019-02-17 15:45;99,75
2019-02-17 16:00;100,25
2019-02-17 16:15;97,8
2019-02-17 16:30;97,2
2019-02-17 16:45;100,6
2019-02-17 17:00;102,6
2019-02-17 17:15;103,25
2019-02-17 17:30;98,45
2019-02-17 17:45;100,6
2019-02-17 18:00;99,2
2019-02-17 18:15;103,25
2019-02-17 18:30;103,45
2019-02-17 18:45;103,1
2019-02-17 19:00;104
2019-02-17 19:15;107,6
2019-02-17 19:30;108,5
2019-02-17 19:45;108,4
2019-02-17 20:00;111
2019-02-17 20:15;110,25
2019-02-17 20:30;103,9
2019-02-17 20:45;108,8
2019-02-17 21:00;105,8
2019-02-17 21:15;105,75
2019-02-17 21:30;105,85
2019-02-17 21:45;103,6
2019-02-17 22:00;99,7
2019-02-17 22:15;96,85
2019-02-17 22:30;93,9
2019-02-17 22:45;92,45
2019-02-17 23:00;100,1
2019-02-17 23:15;97,1
2019-02-17 23:30;98,5
2019-02-17 23:45;100,2

